OPS 4682 DEB, 38361

Orbit data source: Space-Track

OPS 4682 DEB, 38361 is space debris in LEO originally from a launch on Sat, 03 Apr 1965 UTC launched from the Air Force Western Test Range (AFWTR). Debris objects in space refer to the collection of defunct objects orbiting the Earth. Examples of debris include non-operational satellites, rocket bodies, and fragments generated from explosions, collisions, or faulty payload assembly.

Loading next visibility...
Identifier
38361, 1965-027BN
Orbit
LEO
Country
Flag of USUS
Related business
Manufacturer
Unknown
Mission
Spacecraft
Bus & Motor
Unknown
Mass
Unknown
Launch date (UTC)
1965-04-03 (61 years ago)
Launch vehicle
Unknown
Launch site
Air Force Western Test Range (AFWTR)
Object type
Payload
Rocket body
Debris
Shape & HBR
Unknown shape, 0.1 m
Radar Cross Section
Small (<0.1 m²)

Expand to show TLE details & history
Last TLE update: 1 day ago

TLE from 1 day ago
0 OPS 4682 DEB
1 38361U 65027BN  26034.89953261  .00000707  00000-0  23132-2 0  9996
2 38361  90.2399   8.6966 0030926 252.5444 107.2297 13.00299811568625
Epoch: 2026-02-03T21:35Z
TLE epoch observation values (Epoch: 2026-02-03T21:35:19.617Z)
Latitude
-0.00001°
Longitude
-89.20898°
Altitude
1,270.862 km
Speed
7.217 km/s
True Right ascension
00h 34m 47s
True Declination
0° 00' 00"
Sunlit
Object was in daylight at epoch
Visualization orbit readout
Latitude
Unknown
Longitude
Unknown
Altitude
Unknown
Speed
Unknown
Apparent Right ascension
Unknown
Apparent Declination
Unknown
Sunlit
N/A
Visualization observer readout
Local Sidereal Time
07:15:56
Azimuth
Unknown
Elevation
Unknown
Doppler factor
Unknown
Orbital elements
Apogee altitude
1,281.654 km
Perigee altitude
1,234.423 km
Semi-major axis
7,636.176 km
Eccentricity
0.00309
Inclination
90.2399°
RAAN
8.6966°
Arg. of periapsis
252.5444°
True anomaly
107.56779°
Mean anomaly
107.2297°
Eccentric anomaly
107.39879°
Mean motion
3.25259 °/min
Orbital period
110.68 mins
BSTAR
0.0023132
Loading maneuver chart data...
Computing Atmospheric mass density...
Loading historical data...
Loading historical data...
Loading historical data...
Loading historical data...
Loading historical data...
Loading historical data...
Loading historical data...

Documentation

Showing up to 5 results
|